COSMOS 2491 DEB, 47110

Orbit data source: Space-Track

COSMOS 2491 DEB, 47110 is space debris in LEO originally from a launch on Wed, 25 Dec 2013 UTC launched from the Plesetsk Missile And Space Complex (PKMTR). Debris objects in space refer to the collection of defunct objects orbiting the Earth. Examples of debris include non-operational satellites, rocket bodies, and fragments generated from explosions, collisions, or faulty payload assembly.

Loading next visibility...
Identifier
47110, 2013-076AF
Orbit
LEO
Country
Flag of CISCIS
Related business
Manufacturer
TsNIIKhM
Mission
Spacecraft
Bus & Motor
Unknown
Mass
Unknown
Launch date (UTC)
2013-12-25 (12 years ago)
Launch vehicle
Unknown
Launch site
Plesetsk Missile And Space Complex (PKMTR)
Object type
Payload
Rocket body
Debris
Shape & HBR
Unknown shape, 0.1 m
Radar Cross Section
Small (<0.1 m²)

Expand to show TLE details & history
Last TLE update: 2 days ago

TLE from 2 days ago
0 COSMOS 2491 DEB
1 47110U 13076AF  25298.27506693  .00002170  00000-0  12532-1 0  9998
2 47110  82.4447 285.9189 0113727  15.7807 344.6778 12.57700645262056
Epoch: 2025-10-25T06:36Z
TLE epoch observation values (Epoch: 2025-10-25T06:36:05.782Z)
Latitude
-0.00004°
Longitude
152.98685°
Altitude
1,349.556 km
Speed
7.223 km/s
True Right ascension
19h 03m 40s
True Declination
0° 00' 00"
Sunlit
Object was in daylight at epoch
Visualization orbit readout
Latitude
Unknown
Longitude
Unknown
Altitude
Unknown
Speed
Unknown
Apparent Right ascension
Unknown
Apparent Declination
Unknown
Sunlit
N/A
Visualization observer readout
Local Sidereal Time
00:30:14
Azimuth
Unknown
Elevation
Unknown
Doppler factor
Unknown
Orbital elements
Apogee altitude
1,518.579 km
Perigee altitude
1,340.984 km
Semi-major axis
7,807.918 km
Eccentricity
0.01137
Inclination
82.4447°
RAAN
285.9189°
Arg. of periapsis
15.7807°
True anomaly
344.32865°
Mean anomaly
344.6778°
Eccentric anomaly
344.50371°
Mean motion
3.14587 °/min
Orbital period
114.44 mins
BSTAR
0.012532
Loading maneuver chart data...
Computing Atmospheric mass density...
Loading historical data...
Loading historical data...
Loading historical data...
Loading historical data...
Loading historical data...
Loading historical data...
Loading historical data...

Documentation

Showing up to 5 results
|